Regional Weather Roundup
Issued by NWS Northern Indiana

Home | Current Version | Previous Version | Text Only | Print | Product List | Glossary On
Versions: 1 2 3 4 5 6 7 8 9 10 11 12 13 14 15 16 17 18 19 20 21 22 23 24 25 26 27 28 29 30 31 32 33 34 35 36 37 38 39 40 41 42 43 44 45 46 47 48 49 50
000
ASUS43 KIWX 082110
RWRIWX

KIWX WEATHER ROUNDUP
NATIONAL WEATHER SERVICE NORTHERN INDIANA
400 PM EST MON FEB 08 2016

NOTE: "FAIR" INDICATES FEW OR NO CLOUDS BELOW 12,000 FEET WITH NO
SIGNIFICANT WEATHER AND/OR OBSTRUCTIONS TO VISIBILITY.

* THESE STATIONS ARE NOT UNDER NWS QUALITY CONTROL. THEY ALSO MAY NOT
  REPORT WEATHER SUCH AS PRECIPITATION OR FOG.

INZ001>027-082200-
NORTHERN INDIANA

CITY           SKY/WX    TMP DP  RH WIND       PRES   REMARKS
VALPARAISO     CLOUDY    30  22  72 W13       29.68R WCI  20
MICHIGAN CITY* CLOUDY    30  27  86 W10       29.68R WCI  21
LAPORTE*       CLOUDY    32  26  78 NW7       29.67R WCI  26
KNOX*          CLOUDY    30  27  86 W13       29.67R WCI  20
SOUTH BEND     FLURRIES  30  26  85 W12       29.66R WCI  20
ELKHART*         N/A     32  27  80 W10       29.65R WCI  24
GOSHEN         CLOUDY    33  28  81 W12       29.63R WCI  24
MONTICELLO*    LGT SNOW  27  19  74 W13G20    29.70R WCI  16
LOGANSPORT*    FLURRIES  28  21  74 W14G21    29.69R WCI  17
ROCHESTER*     MIX PCPN  32  27  80 W12       29.67R WCI  23
WARSAW*        CLOUDY    32  30  93 W10       29.64R FOG     WCI  24
ANGOLA*        CLOUDY    36  28  75 NW5       29.60R
FORT WAYNE     CLOUDY    36  29  75 W14       29.62R
HUNTINGTON*    CLOUDY    32  27  81 W14       29.64R WCI  22
PERU/GRISSOM   LGT SNOW  29  26  91 W15       29.66R FOG     WCI  17
MARION*        CLOUDY    31  21  67 W20       29.66R WCI  18

$$
INZ028>050-082200-
CENTRAL INDIANA

CITY           SKY/WX    TMP DP  RH WIND       PRES   REMARKS
LAFAYETTE      CLOUDY    25  19  78 W17G24    29.72R WCI  12
KOKOMO*        CLOUDY    28  25  86 W21       29.67R WCI  15
MUNCIE*        CLOUDY    33  29  85 W14       29.64R WCI  23
INDIANAPOLIS   LGT SNOW  28  23  81 NW20      29.69R WCI  15

$$
MIZ043>046-050>051-056>058-064>065-071>073-077>080-082200-
SOUTHWEST LOWER MICHIGAN

CITY           SKY/WX    TMP DP  RH WIND       PRES   REMARKS
BATTLE CREEK   CLOUDY    37  27  67 SW7       29.60R
BENTON HARBOR  CLOUDY    33  29  85 W9        29.64R WCI  25
COLDWATER*     CLOUDY    37  28  68 W8        29.59S
HILLSDALE*     CLOUDY    35  26  69 W8        29.58R WCI  28
HOLLAND        CLOUDY    36  32  85 W10       29.61S
GRAND RAPIDS   PTSUNNY   40  29  64 W13       29.59R
KALAMAZOO      CLOUDY    36  27  69 W9        29.61R
STURGIS*       CLOUDY    34  28  78 W12       29.61R WCI  26
THREE RIVERS*  CLOUDY    33  30  88 W9        29.63R WCI  25

$$
OHZ001>008-015>018-024>025-082200-
NORTHWEST OHIO

CITY           SKY/WX    TMP DP  RH WIND       PRES   REMARKS
DEFIANCE       CLOUDY    40  27  59 NW10G18   29.61R
FINDLAY        CLOUDY    39  31  72 NW7       29.58R
TOLEDO EXPRESS CLOUDY    41  25  53 W13       29.57R
TOLEDO METCALF CLOUDY    42  27  55 W8        29.58R
LIMA           CLOUDY    38  29  70 W14       29.59R

$$
AND FOR LAKE MICHIGAN COASTAL AND OPEN LAKE BUOY OBSERVATIONS

STATION/POSITION TEMP    WIND        PRES    VSBY  WAVE
                 AIR SEA DIR/SP/G                  HT/PER
                 (F)     (DEG/KT/KT) (MB)    (MI)  (FT/S)
CALUMET HARBOR    29     240/  8/ 13 1004.1R
MICHIGAN CITY     30     250/ 17/ 18   N/A
BURNS HARBOR      31     270/ 13/ 16 1005.1R
SAINT JOSEPH      33     270/ 11/ 14 1004.4S

$$
&&



USA.gov is the U.S. government's official web portal to all federal, state and local government web resources and services.